Location: Hurstbourne Priors
(51.2000°N, 1.3667°W)
Time: 20:32:45
(UTC+00:00)

Transit 4A - Pass Details

Date: 19 April 2021
Orbit: 870 x 974 km, 66.8° (Epoch: 09 May)

Event Time Altitude Azimuth Distance (km) Brightness Sun altitude
Rises 00:43:27 0° 225° (SW) 3,623 - -27.0°
Reaches altitude 10° 00:46:02 10° 228° (SW) 2,667 - -27.0°
Exits shadow 00:51:00 55° 255° (WSW) 1,114 8.1 -26.8°
Maximum altitude 00:52:14 69° 311° (NW) 995 8.0 -26.8°
Drops below altitude 10° 00:58:18 10° 35° (NE) 2,608 11.1 -26.5°
Sets 01:00:48 0° 38° (NE) 3,538 12.0 -26.4°
